Temperature
17 17 18 18 15 13 15 16 18 20 21 22 23 22 20 19 20 20 19 19 20 20 20 19 19 18 17 17 17 17 16 16 16 16 16 16 16 15 15 15 15 15 15 15 15 15 15 15 15
17 17 17 17 13 14 15 16 18 20 22 23 23 22 20 20 19 19 19 19 19 20 20 19 18 18 17 17 17 17 17 17 16 16 16 16 16 15 15 15 15 15 15 15 15 15 15 15 15
17 17 17 13 13 14 16 18 18 21 22 23 22 21 20 20 19 19 20 19 19 20 19 19 18 17 17 17 17 17 17 17 17 17 17 16 16 15 15 15 15 15 15 15 15 15 15 15 15
16 16 16 13 14 15 16 18 18 20 22 23 22 19 19 20 20 20 19 19 19 19 19 18 18 17 17 17 17 17 17 18 18 18 17 17 16 16 16 15 15 15 16 16 16 16 15 15 15
16 16 13 13 14 15 16 18 20 19 21 22 21 18 18 19 20 20 19 19 19 19 18 17 17 17 17 17 18 18 18 18 18 18 18 17 17 16 16 16 16 16 16 16 16 16 16 15 15
15 14 12 12 14 16 17 19 20 20 21 22 20 18 18 18 18 18 18 18 18 19 18 17 17 17 17 17 18 18 18 18 18 18 18 18 18 17 17 16 16 16 16 16 16 16 16 16 15
14 12 12 13 14 15 17 19 20 20 20 21 21 17 17 17 17 18 18 18 18 18 17 17 17 17 17 17 18 18 18 18 18 18 18 18 18 18 17 17 17 16 16 16 16 16 16 16 16
14 12 13 13 14 15 17 18 19 20 21 21 21 18 17 18 17 17 17 17 17 17 17 17 17 17 17 18 18 18 18 18 18 18 18 18 18 18 18 17 17 17 17 16 16 16 16 16 16
14 12 12 13 14 15 16 16 18 19 20 20 20 19 19 18 18 17 17 17 17 17 17 17 17 17 18 18 18 18 18 18 18 18 18 18 18 18 18 17 17 17 17 17 16 16 16 16 16
13 12 13 14 15 15 15 16 16 18 19 18 19 19 18 18 18 18 17 17 17 17 17 17 17 17 17 18 18 18 18 18 18 18 18 18 18 18 18 17 17 17 17 16 16 16 16 16 16
12 12 13 15 15 15 15 15 16 16 17 18 19 19 18 18 18 18 17 17 17 17 17 16 17 17 17 17 17 18 18 18 18 18 18 18 18 18 18 17 17 17 17 16 16 16 16 16 15
11 12 14 14 14 14 14 14 15 16 17 19 20 20 19 18 18 18 17 17 17 17 17 16 16 16 17 17 17 17 17 17 18 17 17 17 17 17 17 17 17 17 16 16 16 16 16 15 15
11 12 14 14 14 14 14 14 14 15 17 19 19 19 19 19 18 18 18 17 17 16 16 16 16 16 16 16 16 16 17 17 17 17 17 17 17 17 17 17 16 16 16 16 16 16 16 15 15
11 13 14 14 14 14 14 13 14 15 17 18 18 18 18 18 18 18 18 17 17 17 16 16 16 16 16 16 16 16 16 16 16 16 16 16 16 16 16 16 16 16 16 15 15 15 15 15 15
13 12 13 13 13 14 14 13 13 15 17 17 18 18 18 18 18 18 18 18 17 17 17 16 16 16 16 16 16 16 16 16 16 16 16 16 16 15 15 15 15 15 15 15 15 14 14 14 14
11 11 11 12 13 14 14 13 14 16 16 17 18 18 18 18 18 18 18 18 17 17 17 17 16 16 16 16 16 16 15 15 16 16 16 16 15 15 15 15 15 15 14 14 14 14 14 14 13
10 9 10 12 13 14 13 13 14 16 16 16 17 18 18 18 18 18 18 18 18 17 17 17 16 16 16 16 15 15 15 15 15 15 15 15 15 15 15 15 15 14 14 14 14 13 13 13 13
9 9 10 11 12 13 13 13 14 16 16 16 17 17 18 18 18 18 18 18 17 17 17 17 16 16 16 16 15 15 15 15 15 15 15 15 15 15 15 15 15 14 14 14 13 13 13 13 13
10 9 10 11 12 13 12 12 13 15 15 15 16 17 17 17 17 17 17 17 17 17 17 17 16 16 16 16 15 15 15 15 15 15 15 15 15 15 15 15 14 14 14 14 13 13 13 13 13
11 10 10 12 12 13 12 12 13 14 14 15 16 16 17 17 16 16 16 17 17 17 17 16 16 16 16 16 15 15 15 15 15 15 15 15 15 15 14 14 14 14 14 13 13 13 13 13 13
10 10 10 10 12 12 12 12 12 12 14 15 16 16 16 16 16 16 16 16 16 16 16 16 16 16 16 15 15 15 15 15 15 15 15 15 14 14 14 14 14 13 13 13 13 13 13 13 13
10 11 11 10 10 9 11 9 10 11 12 12 14 15 15 15 15 15 15 15 15 15 15 15 15 15 15 15 15 15 15 15 15 14 14 14 14 14 14 14 13 13 13 13 13 13 13 12 12
11 11 10 10 9 9 10 9 9 10 10 11 11 13 14 14 14 14 14 14 14 14 14 14 14 14 14 14 14 14 14 14 14 14 14 14 14 14 13 13 13 13 13 13 12 12 12 12 12
10 10 9 8 8 9 8 8 8 9 10 11 10 12 13 13 13 13 12 12 12 13 13 13 13 13 13 13 13 13 13 13 13 13 13 13 13 13 13 13 13 12 12 12 12 12 12 11 11
10 8 8 8 8 7 8 8 9 10 10 10 10 11 12 12 12 12 12 11 11 11 12 12 12 12 12 12 12 12 12 12 12 12 12 12 12 12 12 12 12 12 12 12 11 11 11 11 11
9 8 7 8 7 7 8 8 9 9 10 11 11 11 11 12 12 11 11 11 11 11 11 11 10 10 11 11 10 10 10 10 10 10 10 10 11 11 11 11 11 11 11 11 11 11 10 10 10
8 8 8 7 7 7 7 8 8 9 9 9 9 10 11 11 11 11 11 10 10 10 10 10 10 9 9 9 9 9 9 9 9 9 9 9 9 9 9 10 10 10 10 10 10 10 10 10 10
8 8 7 7 7 7 8 8 8 9 8 8 8 9 11 11 11 11 10 10 10 9 9 9 9 8 8 8 8 8 8 8 8 8 8 8 8 8 8 9 9 9 9 9 9 9 9 9 9
8 8 8 7 7 7 8 8 9 8 8 8 8 10 11 11 11 10 10 9 9 8 8 8 7 7 7 7 7 7 7 7 7 7 7 7 8 8 8 8 8 8 8 8 8 8 8 8 8
8 8 7 7 7 6 6 7 9 8 8 9 9 10 11 11 10 10 9 9 8 8 7 7 7 6 6 6 6 6 6 6 6 6 7 7 7 7 7 7 7 7 7 7 7 7 7 7 7
Wind_Speed
8 7 3 4 5 4 4 7 5 3 2 2 2 7 9 5 4 6 4 11 16 14 18 21 21 19 19 19 19 19 18 17 16 14 12 11 11 12 14 15 16 17 16 16 15 15 14 14 14
4 3 4 5 5 2 6 6 6 6 6 4 5 6 7 4 3 7 6 12 18 17 18 19 21 20 20 20 20 19 18 17 15 13 12 12 13 14 15 16 17 17 16 15 15 14 13 13 12
1 2 4 4 5 6 6 4 5 5 5 4 5 6 6 5 4 5 9 16 15 14 16 19 21 21 21 20 20 19 18 16 15 13 12 13 14 15 16 17 17 16 15 14 13 13 12 11 10
1 3 4 3 6 7 5 6 5 4 2 2 6 6 3 2 3 8 15 16 15 11 15 19 21 21 21 20 20 19 17 16 15 14 13 14 16 16 17 16 16 15 14 13 12 11 10 9 8
2 4 3 2 7 6 5 7 6 4 1 3 6 6 4 7 8 17 16 16 15 11 15 19 21 21 21 20 20 18 17 15 15 14 13 15 16 16 16 15 14 14 13 12 11 10 9 7 6
4 4 3 5 7 6 6 6 4 2 1 3 6 6 2 3 9 14 16 15 14 13 14 18 21 21 21 20 19 18 17 16 15 14 14 14 15 15 14 14 13 13 12 12 11 9 8 6 4
6 6 7 6 5 6 6 5 3 2 1 2 6 7 3 2 6 11 14 14 13 14 14 14 18 19 20 20 20 19 18 17 16 15 14 14 14 14 13 13 12 12 11 11 10 9 7 6 4
6 7 7 6 6 7 5 7 5 2 1 2 5 9 7 4 6 12 13 12 12 10 10 11 14 16 17 18 19 19 18 18 17 16 15 14 13 12 12 11 11 11 11 10 9 8 7 6 4
5 7 12 12 9 6 4 6 8 6 2 4 4 4 7 9 12 15 12 10 9 10 8 9 11 13 14 15 17 18 18 18 17 16 17 15 13 11 11 10 11 11 10 10 9 8 7 6 4
6 11 15 12 9 4 4 6 8 7 4 4 6 6 8 10 13 15 13 12 11 11 9 8 8 11 13 13 14 15 15 15 15 15 16 15 13 12 10 11 11 10 10 10 9 8 7 6 5
8 11 9 7 5 2 5 9 8 5 3 4 8 9 8 10 11 11 11 11 11 11 10 10 8 11 12 10 12 12 12 13 14 15 15 14 12 11 10 11 11 11 11 10 9 8 7 7 6
7 7 7 6 4 3 3 7 9 7 7 7 9 11 9 11 11 11 10 10 10 10 10 10 9 9 11 11 11 12 11 11 11 14 16 13 9 9 9 10 12 12 12 11 9 9 9 9 9
6 8 9 7 8 7 5 6 9 12 10 2 6 8 9 10 9 8 9 8 8 9 9 10 10 9 9 9 9 11 11 12 14 15 16 16 11 8 10 11 12 13 13 12 10 10 9 9 10
7 6 8 8 10 10 9 7 7 12 8 3 9 9 8 9 9 7 7 8 8 9 9 8 9 9 10 7 6 8 12 13 14 15 17 19 15 12 10 10 11 13 14 14 13 12 10 9 9
6 5 5 8 10 9 9 9 13 13 7 4 7 8 8 8 8 9 9 9 9 9 8 9 9 8 8 8 8 9 12 13 12 14 18 19 18 15 12 9 9 13 16 15 13 12 10 7 7
7 6 6 7 12 10 12 13 15 10 7 7 7 6 6 5 7 7 8 7 8 7 7 8 8 8 8 7 7 7 10 11 12 14 16 19 20 18 14 9 9 14 15 12 7 6 7 7 6
6 9 9 7 10 9 11 9 10 7 8 9 8 7 6 5 4 4 5 6 6 6 6 6 6 6 7 7 6 7 8 8 10 12 13 16 19 19 15 10 10 13 11 8 8 8 6 7 7
14 11 10 9 8 9 10 7 6 5 6 9 8 6 5 5 4 3 3 4 5 4 4 3 3 2 4 4 3 3 4 5 7 8 11 13 15 16 14 10 10 11 7 8 7 8 7 6 7
9 8 8 6 6 8 9 8 8 7 5 7 7 7 6 4 1 2 4 5 6 6 6 5 4 2 1 1 2 3 5 5 5 6 10 11 12 13 12 7 7 7 9 10 10 8 8 7 4
9 9 8 4 4 8 8 10 8 9 7 8 8 8 8 6 4 4 5 6 7 6 6 6 5 3 2 1 1 2 3 4 5 4 7 10 10 11 9 7 7 7 8 9 10 8 6 6 6
7 9 9 6 3 2 4 6 9 9 6 6 7 7 8 9 9 7 6 7 7 7 6 5 5 4 3 1 1 1 1 1 2 3 3 5 8 10 10 10 8 8 8 9 10 10 10 9 7
5 7 9 8 7 4 6 5 8 9 10 11 10 8 8 8 9 8 7 7 6 5 5 6 5 5 4 3 3 2 0 2 3 3 4 5 6 8 10 10 9 9 8 9 10 10 10 9 8
4 4 7 7 7 3 3 4 8 5 11 14 12 10 9 9 10 9 8 7 6 5 5 5 5 6 5 5 4 3 1 2 3 3 4 4 4 6 7 8 7 8 8 9 9 9 10 9 9
5 8 8 6 4 4 7 6 8 7 11 9 10 10 10 10 9 8 7 7 5 5 5 5 6 6 6 6 5 4 3 3 3 4 4 4 4 4 5 5 5 6 7 8 9 9 10 10 11
6 8 4 2 3 7 5 6 10 9 9 11 12 12 11 10 9 8 8 6 5 5 5 5 6 6 6 7 6 5 4 3 3 4 4 4 3 3 5 4 4 4 5 6 6 7 8 9 9
6 8 7 6 7 4 4 9 9 7 7 7 11 12 11 10 8 8 8 7 6 5 5 5 6 5 6 6 6 5 5 3 3 3 3 3 3 4 5 5 4 4 4 4 4 5 6 5 7
6 4 5 5 3 3 6 7 8 2 2 7 11 11 10 9 9 8 7 6 6 5 5 5 5 5 5 5 5 5 6 5 5 5 5 4 4 5 6 6 5 5 5 4 3 3 3 3 3
3 6 5 5 6 5 6 6 6 6 7 9 11 11 9 8 8 8 7 6 5 5 5 5 5 5 4 5 5 5 6 6 6 5 6 6 6 6 7 7 7 7 7 6 5 3 3 3 3
4 4 5 5 4 5 5 7 6 10 12 13 11 10 10 9 9 8 7 6 6 5 5 5 5 5 5 5 5 6 6 6 7 6 7 6 7 8 8 7 7 8 8 7 6 6 6 5 5
4 6 7 6 5 5 4 7 6 7 9 10 9 8 8 9 8 8 7 6 6 5 5 4 4 4 4 4 5 6 6 7 7 7 7 7 8 8 8 8 8 9 9 9 9 8 8 7 7
Wind_Direction
329 336 66 60 61 62 238 244 237 271 212 217 136 108 104 97 144 156 116 139 136 142 151 150 147 146 142 137 134 130 127 122 118 114 112 114 118 119 119 115 113 108 104 101 99 96 95 95 97
327 6 63 66 104 175 252 248 245 235 214 185 128 103 86 73 84 107 118 142 140 144 149 150 147 145 142 138 134 131 128 125 121 118 116 116 120 121 120 116 113 110 108 106 104 102 100 99 99
307 70 87 91 150 193 226 256 235 251 245 175 94 74 101 132 138 124 144 141 135 138 146 150 146 145 142 139 136 133 131 128 126 123 121 119 123 122 119 117 115 114 113 112 111 109 106 103 100
86 67 65 109 219 226 232 291 296 266 278 69 93 64 54 352 156 131 137 136 132 129 142 150 147 145 142 140 138 136 134 133 132 131 128 124 124 122 121 120 120 121 121 120 118 116 113 108 101
84 94 97 220 241 251 261 278 274 246 177 69 94 92 28 350 102 127 136 136 135 132 142 150 148 147 145 144 142 140 139 139 139 139 135 129 128 127 127 128 129 129 129 129 128 126 124 120 110
101 102 144 218 250 278 287 286 293 255 185 90 98 98 55 43 112 133 137 138 138 139 143 150 150 149 148 148 146 145 145 146 147 146 143 137 134 135 136 138 140 140 141 140 139 139 140 140 131
150 150 184 205 255 280 287 303 261 224 111 102 118 106 117 102 122 134 135 136 139 143 145 149 153 153 153 153 152 152 152 152 152 152 149 144 143 146 148 151 152 152 151 151 151 152 156 161 164
161 152 183 200 227 261 315 325 302 228 206 70 104 131 161 169 118 125 129 133 137 142 146 148 152 155 156 157 158 158 157 157 157 155 153 152 153 156 159 163 165 163 162 162 163 165 170 179 189
136 159 200 200 206 239 332 335 327 317 74 54 67 134 147 128 117 123 126 129 140 149 152 149 151 154 156 159 164 162 162 163 161 160 160 160 162 167 170 175 177 175 173 175 177 179 184 194 209
153 192 207 202 194 217 303 319 323 329 11 51 60 72 106 114 126 135 146 152 158 164 168 163 161 161 161 166 165 166 166 168 166 167 167 170 173 178 181 188 188 186 186 188 192 195 198 207 228
172 199 203 205 189 220 302 314 322 308 275 186 159 156 140 128 134 143 154 162 168 170 173 176 173 172 171 168 167 171 170 172 175 177 180 181 183 188 192 194 197 196 196 199 206 207 210 220 235
177 203 185 188 156 180 262 302 306 287 261 244 186 165 155 150 153 159 162 164 165 168 177 181 180 177 180 175 175 177 175 179 184 190 192 189 189 197 201 199 201 199 200 202 206 211 221 232 242
184 182 188 176 158 176 203 256 284 285 277 242 141 147 160 163 169 175 174 173 168 173 176 175 175 175 178 178 181 184 186 189 194 198 202 200 197 199 202 206 206 206 205 205 208 216 223 231 239
185 167 173 172 175 185 192 225 248 264 266 149 138 155 172 176 178 178 183 189 190 189 186 178 175 174 173 178 184 188 193 197 199 203 207 208 207 202 200 204 207 210 210 210 211 215 221 227 227
151 154 155 176 179 178 168 209 227 241 247 193 161 162 174 184 179 185 191 192 197 200 198 191 188 178 176 182 190 193 196 200 203 208 210 211 212 208 201 204 208 212 213 213 214 218 222 228 226
137 149 171 193 175 169 167 212 224 227 218 213 198 184 181 192 192 194 190 185 188 192 199 204 201 191 192 192 196 199 198 199 205 211 212 213 214 212 207 207 212 212 211 210 210 212 217 225 224
147 173 181 193 184 164 177 211 226 223 208 220 218 211 207 216 219 211 192 175 169 175 183 191 198 198 204 205 205 210 210 209 211 212 214 216 216 216 214 217 217 210 208 209 212 212 208 218 223
175 174 176 182 190 167 184 207 229 232 208 221 220 215 210 214 223 186 152 140 125 119 125 147 171 206 212 210 215 224 231 232 228 223 222 220 219 218 218 224 224 213 212 216 213 213 211 213 214
135 141 161 185 186 171 197 211 231 247 231 224 217 203 191 186 159 96 87 96 97 81 82 84 90 58 101 166 201 220 234 239 240 236 235 228 225 223 220 225 224 216 221 224 218 214 217 222 188
144 150 169 192 195 180 205 228 237 249 232 218 210 201 185 158 127 92 77 71 77 80 75 70 64 57 64 126 192 212 231 242 243 251 248 242 238 232 224 221 226 223 227 231 225 216 217 216 185
168 170 175 174 126 140 158 249 242 250 244 236 222 205 184 166 151 129 105 91 81 71 65 62 52 51 48 41 84 15 4 328 304 273 265 262 257 250 240 234 230 228 223 230 228 220 219 225 209
185 193 174 156 140 195 174 228 257 233 239 235 225 201 181 160 146 139 127 110 96 82 64 52 42 40 35 42 63 84 139 257 264 272 275 287 278 267 257 249 240 237 232 232 232 225 223 222 220
189 168 148 149 140 137 175 199 272 238 230 232 219 200 181 165 151 145 136 124 107 87 66 50 45 38 29 36 45 55 27 274 290 303 302 299 293 283 272 260 251 247 241 238 235 229 224 221 222
133 87 68 64 95 203 204 189 264 229 219 221 205 189 175 163 150 139 128 116 97 74 59 48 47 37 28 34 34 37 13 340 335 330 320 312 305 302 303 288 267 260 253 248 244 238 230 227 227
137 117 103 127 203 238 197 201 246 242 229 211 191 176 170 160 148 140 132 119 104 82 62 52 55 40 26 29 25 20 12 2 341 320 315 320 320 319 321 319 305 288 275 268 261 251 243 235 231
170 145 156 175 199 249 206 225 250 269 261 197 163 158 157 155 151 147 143 131 116 98 76 64 61 45 29 25 16 14 14 9 354 346 345 344 334 322 327 334 332 318 308 299 286 271 263 253 244
141 155 153 133 156 206 242 265 299 335 102 139 146 152 159 158 155 150 141 131 122 106 87 80 73 53 31 20 16 18 16 19 15 12 14 7 355 349 355 359 359 354 347 338 327 315 304 285 269
137 142 117 138 168 226 258 248 238 222 193 170 164 164 163 158 153 147 142 137 127 115 99 82 77 65 38 28 27 36 25 24 20 24 21 13 6 7 8 11 11 11 12 11 16 12 6 21 13
153 161 162 166 184 188 239 260 227 211 195 182 177 169 164 163 161 157 152 143 131 118 105 90 74 61 44 37 39 40 31 28 31 32 24 18 19 19 19 18 22 24 21 21 30 30 29 42 38
192 189 167 176 210 197 210 267 290 235 192 172 171 172 169 165 162 158 153 144 136 125 111 96 79 63 48 48 53 47 39 36 36 31 26 28 30 27 26 29 34 33 31 31 37 40 40 46 45
Height
1536 1537 1538 1540 1543 1552 1551 1541 1531 1526 1523 1521 1521 1520 1522 1526 1529 1534 1531 1532 1536 1538 1540 1544 1546 1549 1551 1552 1553 1555 1555 1556 1557 1557 1557 1557 1558 1559 1559 1560 1561 1561 1561 1561 1561 1560 1560 1560 1560
1535 1536 1539 1539 1547 1556 1550 1536 1529 1523 1521 1520 1521 1521 1522 1525 1526 1527 1529 1533 1537 1539 1541 1544 1547 1549 1551 1552 1554 1555 1556 1556 1557 1557 1558 1558 1559 1560 1561 1562 1562 1563 1563 1563 1563 1562 1562 1562 1562
1533 1535 1537 1540 1547 1550 1541 1529 1525 1520 1519 1519 1520 1522 1524 1527 1527 1528 1530 1534 1537 1539 1541 1544 1547 1549 1551 1552 1554 1555 1556 1557 1557 1558 1559 1559 1560 1561 1563 1563 1564 1564 1564 1564 1564 1564 1564 1564 1564
1532 1534 1536 1542 1543 1537 1531 1526 1524 1521 1519 1517 1519 1523 1526 1528 1528 1529 1531 1534 1536 1539 1542 1545 1547 1550 1551 1553 1554 1555 1556 1557 1558 1559 1559 1560 1561 1563 1564 1565 1565 1566 1566 1566 1566 1566 1566 1566 1566
1529 1532 1538 1543 1538 1531 1527 1524 1523 1521 1518 1517 1519 1524 1527 1528 1528 1529 1531 1534 1537 1539 1542 1545 1548 1550 1551 1553 1554 1555 1556 1557 1558 1559 1560 1561 1562 1563 1564 1565 1566 1567 1567 1568 1568 1568 1568 1568 1568
1527 1530 1541 1543 1536 1528 1525 1524 1523 1520 1518 1518 1519 1524 1528 1529 1529 1530 1533 1536 1538 1540 1543 1545 1548 1550 1552 1553 1554 1556 1557 1558 1558 1559 1561 1562 1563 1564 1565 1566 1567 1568 1568 1569 1569 1569 1569 1569 1569
1524 1529 1536 1536 1534 1529 1525 1523 1522 1520 1518 1519 1520 1524 1528 1531 1531 1532 1534 1537 1539 1541 1544 1546 1548 1550 1552 1553 1555 1556 1557 1558 1559 1560 1561 1562 1563 1565 1566 1567 1567 1568 1569 1569 1570 1570 1570 1570 1570
1519 1525 1531 1532 1532 1529 1525 1523 1522 1520 1519 1519 1520 1522 1527 1530 1532 1533 1536 1538 1540 1542 1544 1546 1548 1550 1551 1553 1555 1556 1557 1559 1560 1561 1562 1563 1564 1565 1566 1567 1568 1569 1569 1570 1570 1571 1571 1571 1571
1516 1525 1528 1527 1528 1526 1524 1525 1522 1521 1519 1519 1519 1521 1524 1529 1531 1534 1536 1538 1540 1542 1544 1545 1547 1549 1551 1553 1554 1556 1557 1559 1560 1561 1562 1563 1564 1565 1566 1567 1568 1569 1569 1570 1570 1571 1571 1571 1571
1513 1520 1517 1517 1521 1523 1524 1526 1526 1523 1521 1520 1520 1522 1526 1529 1531 1533 1535 1537 1539 1541 1543 1544 1547 1549 1550 1552 1554 1555 1556 1558 1559 1561 1562 1563 1564 1565 1566 1567 1568 1569 1569 1570 1570 1570 1571 1571 1571
1510 1512 1512 1516 1520 1523 1525 1526 1526 1527 1524 1521 1521 1523 1526 1529 1532 1533 1535 1537 1539 1541 1542 1544 1546 1548 1550 1551 1553 1554 1556 1557 1558 1560 1561 1562 1563 1564 1565 1566 1567 1568 1569 1569 1570 1570 1570 1570 1570
1508 1509 1512 1516 1520 1525 1528 1528 1528 1526 1524 1521 1521 1522 1525 1528 1530 1533 1535 1536 1538 1540 1541 1543 1545 1547 1549 1550 1552 1553 1554 1556 1557 1559 1560 1561 1562 1563 1564 1565 1566 1567 1567 1568 1568 1569 1569 1569 1569
1506 1507 1511 1515 1521 1525 1528 1530 1529 1525 1522 1520 1521 1522 1524 1527 1530 1533 1535 1537 1538 1539 1540 1542 1544 1545 1547 1549 1550 1552 1553 1555 1556 1557 1558 1559 1560 1561 1562 1563 1564 1564 1565 1566 1566 1566 1566 1566 1567
1504 1506 1510 1514 1519 1522 1526 1529 1531 1525 1523 1521 1521 1522 1524 1526 1529 1531 1533 1535 1537 1538 1540 1541 1542 1544 1545 1546 1548 1550 1551 1553 1554 1555 1557 1558 1558 1559 1559 1560 1560 1561 1562 1563 1563 1564 1564 1564 1563
1504 1508 1511 1513 1516 1520 1525 1529 1528 1524 1523 1522 1521 1522 1524 1526 1528 1529 1531 1533 1535 1537 1539 1540 1541 1543 1544 1545 1546 1548 1549 1550 1551 1553 1554 1555 1556 1556 1557 1557 1557 1558 1559 1560 1560 1560 1560 1560 1560
1504 1510 1514 1511 1512 1515 1523 1526 1520 1520 1521 1520 1520 1521 1522 1524 1526 1528 1529 1531 1532 1534 1536 1538 1540 1541 1542 1543 1545 1546 1547 1548 1549 1550 1551 1552 1553 1554 1554 1554 1554 1555 1556 1556 1556 1556 1556 1556 1555
1507 1513 1514 1510 1508 1510 1516 1519 1515 1516 1518 1518 1518 1519 1520 1522 1524 1526 1527 1529 1530 1532 1533 1535 1537 1538 1540 1541 1543 1544 1545 1546 1547 1547 1548 1549 1549 1550 1550 1550 1551 1552 1552 1552 1552 1552 1552 1551 1551
1503 1507 1509 1509 1506 1508 1512 1514 1512 1513 1514 1514 1515 1516 1518 1519 1521 1523 1525 1526 1528 1529 1531 1532 1534 1535 1537 1538 1539 1541 1542 1542 1543 1544 1545 1545 1546 1546 1547 1547 1547 1548 1548 1548 1548 1547 1548 1547 1547
1498 1504 1507 1507 1504 1507 1510 1512 1511 1509 1511 1511 1511 1513 1514 1516 1518 1520 1521 1523 1525 1526 1528 1529 1531 1532 1533 1534 1535 1536 1537 1538 1539 1540 1541 1541 1542 1542 1542 1542 1542 1543 1542 1542 1543 1543 1543 1542 1543
1496 1503 1506 1505 1503 1507 1511 1511 1508 1507 1508 1508 1508 1509 1511 1513 1515 1516 1518 1520 1522 1523 1525 1526 1527 1528 1529 1530 1531 1532 1532 1533 1534 1535 1536 1536 1537 1537 1537 1537 1537 1537 1537 1537 1537 1537 1536 1536 1537
1498 1502 1505 1506 1506 1507 1511 1513 1509 1505 1504 1505 1505 1506 1507 1509 1511 1513 1515 1517 1519 1520 1522 1523 1524 1524 1525 1526 1526 1527 1527 1528 1529 1529 1529 1530 1530 1531 1531 1530 1531 1531 1530 1530 1530 1531 1530 1529 1530
1499 1497 1500 1505 1511 1517 1514 1522 1510 1504 1503 1501 1501 1502 1504 1506 1508 1510 1512 1514 1516 1517 1518 1519 1519 1520 1520 1521 1521 1522 1522 1522 1523 1523 1523 1524 1524 1524 1523 1523 1523 1523 1523 1523 1523 1524 1523 1523 1522
1495 1494 1499 1505 1511 1516 1515 1520 1511 1502 1501 1497 1496 1498 1500 1503 1505 1508 1510 1512 1513 1514 1515 1515 1515 1516 1516 1516 1516 1516 1516 1516 1517 1517 1517 1517 1517 1517 1517 1516 1516 1516 1516 1516 1516 1516 1516 1516 1516
1494 1498 1504 1509 1514 1521 1517 1521 1512 1501 1494 1490 1491 1494 1497 1500 1503 1505 1507 1509 1510 1511 1511 1512 1512 1512 1512 1512 1512 1512 1512 1511 1511 1511 1511 1510 1510 1510 1510 1509 1509 1509 1508 1509 1509 1509 1509 1509 1509
1494 1504 1516 1518 1521 1521 1513 1514 1502 1489 1485 1484 1485 1489 1493 1497 1500 1503 1505 1507 1508 1509 1509 1509 1509 1509 1509 1508 1508 1507 1507 1506 1506 1505 1505 1504 1504 1504 1503 1503 1502 1502 1502 1502 1502 1502 1502 1502 1502
1495 1500 1512 1518 1521 1520 1511 1509 1494 1483 1479 1478 1481 1486 1491 1495 1498 1501 1503 1505 1506 1506 1507 1506 1506 1506 1505 1505 1504 1503 1503 1502 1501 1500 1500 1499 1498 1498 1497 1497 1496 1496 1495 1495 1495 1495 1495 1495 1495
1496 1499 1501 1510 1514 1516 1511 1500 1490 1481 1479 1479 1481 1485 1489 1493 1496 1499 1501 1503 1504 1504 1504 1504 1503 1502 1502 1501 1500 1500 1499 1498 1497 1496 1496 1495 1494 1494 1493 1492 1491 1490 1490 1489 1489 1489 1489 1489 1489
1493 1496 1504 1510 1513 1513 1504 1498 1492 1483 1482 1481 1482 1484 1487 1491 1495 1497 1499 1501 1502 1502 1501 1501 1500 1499 1498 1497 1497 1496 1495 1494 1493 1493 1492 1491 1491 1490 1489 1488 1487 1486 1485 1484 1484 1484 1483 1483 1483
1495 1497 1498 1504 1507 1509 1505 1496 1479 1477 1476 1478 1479 1482 1486 1490 1493 1496 1497 1499 1499 1499 1498 1497 1497 1496 1495 1494 1493 1492 1492 1491 1490 1490 1489 1488 1487 1486 1485 1484 1483 1482 1481 1480 1480 1479 1478 1478 1478
1492 1492 1496 1502 1504 1505 1508 1496 1473 1472 1473 1476 1479 1483 1486 1489 1492 1494 1495 1496 1496 1495 1495 1494 1493 1493 1492 1491 1490 1490 1489 1488 1488 1487 1486 1485 1484 1483 1482 1481 1480 1479 1478 1477 1476 1475 1474 1474 1473